Theta_e
307 306 306 306 306 306 306 306 306 305 305 305 306 306 307 307 307 307 308 308 308 308 308 308 308 309 309 310 311 311 312 312 312 312 314 315 314 315 316 313 313 313 313 313 313 313 313 314 314 312 317 318 314 316 315 316 322 330 334 327 315 313 316 318 324 323 317 318 320 316 313 316 316 316 312 309 313 316 316 316 314 310 307 304 304 304 305 307
308 307 306 306 306 306 306 305 305 305 305 306 307 307 308 308 309 309 309 309 309 309 309 309 310 311 311 312 312 312 313 312 312 314 318 318 315 315 316 313 312 313 313 313 313 313 315 316 312 313 321 319 313 317 319 315 321 333 330 322 318 320 318 318 325 323 317 316 318 317 313 314 314 314 313 313 318 316 316 317 315 316 311 305 305 305 305 306
308 308 307 306 306 306 306 306 306 305 306 308 308 308 309 309 309 310 310 311 311 311 311 312 313 313 314 314 314 314 313 313 313 315 318 318 315 316 315 313 313 313 312 313 313 313 315 316 312 315 324 319 315 321 324 318 319 325 325 323 325 327 322 319 323 321 317 314 316 318 312 314 314 312 313 314 317 315 315 317 314 315 313 308 304 303 303 303
308 308 308 306 306 306 307 308 308 307 308 308 309 309 310 311 311 311 311 312 313 313 314 314 315 315 316 316 316 316 313 315 315 314 317 318 316 316 313 313 313 312 313 313 314 315 314 314 312 317 322 318 320 321 319 318 317 318 321 324 324 322 320 319 322 321 318 313 314 318 314 315 314 312 314 314 316 316 314 313 312 313 312 309 305 301 301 301
309 308 308 307 305 306 307 308 309 308 309 310 310 310 310 311 312 313 313 314 314 315 315 315 316 316 317 317 318 316 316 319 315 311 316 318 317 315 313 312 313 313 313 313 314 314 313 312 314 322 321 317 323 321 315 316 316 317 319 322 323 319 317 320 322 320 318 313 313 318 316 314 311 312 316 315 315 314 310 308 309 309 307 305 303 301 300 300
309 308 308 307 306 306 307 308 309 309 310 311 311 311 311 312 313 314 315 315 315 315 315 315 316 316 316 316 318 317 316 316 312 313 316 316 316 315 313 312 313 313 313 314 313 313 315 315 317 325 322 317 319 315 314 315 315 317 319 319 322 319 317 318 319 318 316 314 316 317 312 311 312 313 314 314 312 308 303 303 303 302 301 301 300 299 299 299
308 308 308 307 307 306 307 309 310 310 311 311 312 312 313 313 314 315 316 316 315 315 315 315 315 315 315 315 318 319 319 317 314 317 320 317 315 313 313 312 312 313 313 314 314 315 317 317 319 322 321 316 315 314 313 313 316 321 321 320 319 316 318 319 317 317 315 316 316 313 309 310 314 312 312 310 306 302 301 301 300 300 299 299 299 298 298 298
309 309 308 308 308 307 308 309 309 311 312 312 313 314 314 315 316 315 316 316 315 315 314 315 315 314 314 314 319 325 324 321 318 318 320 319 316 313 313 313 312 313 313 313 314 316 316 316 316 316 317 315 313 316 313 312 319 322 319 321 318 316 321 319 315 316 315 315 312 310 310 311 312 311 310 307 302 301 301 300 299 299 299 298 298 298 298 298
311 310 309 309 309 308 309 310 310 311 312 313 314 315 316 316 317 316 315 315 314 315 314 314 314 314 314 314 318 326 324 320 319 319 319 319 317 314 313 313 312 312 312 313 314 313 314 316 316 314 315 315 312 315 314 314 319 319 318 321 318 316 318 315 313 315 315 314 311 310 313 312 309 309 309 305 301 301 300 299 299 298 298 298 297 297 298 297
312 312 311 309 309 309 309 310 311 312 312 314 315 316 317 317 317 316 316 316 316 316 316 315 315 314 314 313 317 323 320 320 321 321 319 319 318 315 313 313 313 312 312 312 313 312 313 315 313 311 314 316 312 313 314 313 315 316 318 318 317 314 314 313 313 314 313 312 311 311 313 311 307 310 310 304 302 303 303 301 298 298 298 297 297 297 297 297
313 314 312 309 309 309 309 311 312 313 314 315 316 317 317 318 317 317 318 317 318 318 318 317 315 315 314 314 320 321 317 319 321 320 319 318 317 315 313 313 312 312 312 312 312 312 313 312 308 309 313 314 313 314 312 311 312 314 314 316 318 316 314 314 314 312 311 312 311 311 312 311 310 311 309 305 302 304 307 303 298 298 298 296 297 296 297 296
314 314 312 311 311 310 310 311 312 313 315 316 317 317 318 319 319 319 319 319 319 319 319 318 315 315 313 314 319 318 315 318 320 319 319 317 315 315 313 314 313 312 312 312 312 312 313 311 310 314 314 313 315 315 312 310 311 313 313 315 319 319 317 314 313 311 311 312 311 311 314 315 313 310 306 304 303 303 308 305 299 298 297 297 297 296 296 296
314 314 313 313 313 312 311 311 313 314 315 317 318 318 319 320 320 320 320 320 320 320 319 317 316 314 313 318 318 314 314 317 319 319 318 316 315 315 314 313 313 312 313 313 313 313 313 312 312 315 314 316 317 312 312 312 312 313 312 314 316 319 320 314 311 312 312 312 309 311 318 320 312 307 304 303 304 308 313 307 299 298 297 296 296 296 296 295
314 314 314 314 314 313 311 311 313 315 316 317 318 320 321 320 321 321 320 320 319 319 318 315 315 312 313 318 315 312 314 315 317 318 317 316 315 315 315 314 314 314 313 314 314 314 314 311 311 313 311 315 314 309 315 319 318 315 311 317 319 317 324 320 313 315 313 310 309 311 319 320 311 306 304 301 303 313 315 304 299 298 296 296 296 295 295 295
314 315 315 315 314 313 313 313 314 316 317 318 319 321 321 321 321 321 320 319 317 315 315 313 312 313 316 318 312 312 315 315 318 319 316 315 314 315 315 315 315 314 313 313 314 313 312 312 314 316 312 311 312 315 322 322 324 322 314 324 324 315 325 325 314 316 314 310 311 312 319 320 310 305 304 301 303 311 311 302 299 298 297 296 295 295 295 295
314 315 316 316 315 314 314 314 315 316 316 318 320 321 321 321 320 320 318 316 315 314 313 313 312 313 319 317 313 313 314 315 319 318 316 315 315 315 314 314 313 312 313 311 312 312 311 314 313 313 312 311 317 326 328 323 326 325 317 324 328 318 321 320 314 315 314 311 311 313 318 319 310 303 303 301 301 306 307 301 298 298 297 296 295 294 294 294
313 314 316 316 315 314 314 314 315 315 315 318 321 321 321 321 320 318 316 314 315 316 314 314 312 313 316 314 313 315 313 313 316 318 317 315 315 316 314 313 311 310 312 311 312 312 311 314 312 311 314 314 318 326 328 324 327 326 317 318 324 319 317 319 318 315 312 313 313 313 315 316 311 305 303 302 300 304 306 301 298 297 296 295 295 294 294 293
313 315 317 317 316 315 314 314 314 314 316 319 320 321 321 320 318 317 316 316 315 314 313 313 312 316 319 314 314 315 313 313 315 317 317 316 315 315 315 312 308 310 314 314 313 313 313 315 317 318 317 314 315 322 325 325 329 332 323 319 322 318 315 319 318 315 313 315 316 315 316 315 313 309 304 301 299 303 303 298 297 297 296 296 295 294 294 293
315 315 317 317 316 315 314 314 315 315 317 318 320 320 318 316 316 316 315 315 318 318 318 317 316 321 321 315 314 313 312 313 314 315 315 315 313 313 313 310 311 315 316 317 313 313 318 318 319 320 317 315 315 317 321 323 324 329 329 327 327 321 318 318 318 316 313 314 318 316 317 317 314 315 309 301 299 301 300 298 298 297 296 296 295 295 294 293
316 316 317 318 318 316 314 314 315 316 317 318 319 318 319 320 319 319 316 316 321 320 321 322 320 322 319 315 315 313 313 313 313 314 314 313 311 312 311 308 314 317 316 322 317 312 316 319 319 319 318 317 315 314 317 321 320 322 325 326 326 323 320 318 316 316 311 314 320 316 317 317 314 316 308 302 303 302 301 300 299 297 297 296 296 295 295 294
317 317 319 319 319 316 314 315 315 316 317 318 319 318 323 325 320 320 322 322 319 313 318 320 316 317 315 312 313 312 314 314 312 312 313 312 311 312 314 312 315 316 316 321 317 310 314 319 319 318 317 316 314 312 314 317 316 317 321 320 321 321 319 316 313 314 312 313 318 315 315 317 316 315 306 302 306 305 302 301 299 298 297 296 296 296 295 295
318 318 319 320 319 316 314 315 316 317 317 318 318 318 319 320 317 316 319 324 322 314 316 316 312 315 313 310 312 312 315 317 314 313 312 311 311 313 316 315 317 318 315 316 315 313 315 318 316 315 316 315 313 312 311 313 313 315 319 317 317 317 317 317 313 312 312 313 319 317 314 316 317 311 303 301 304 301 298 299 299 298 298 297 296 296 295 295
319 319 320 320 319 316 315 316 317 317 317 317 318 318 317 317 316 316 317 325 327 319 317 318 317 319 316 312 313 312 315 320 319 316 312 311 312 314 315 314 317 319 315 314 316 318 319 319 315 314 317 315 314 314 312 312 312 315 318 316 316 316 318 322 317 313 312 311 316 316 314 316 315 307 301 300 299 298 297 298 298 297 298 297 295 295 295 295
320 320 320 320 318 317 316 317 318 318 318 317 318 319 319 318 317 317 319 324 327 323 320 318 318 321 321 315 313 314 317 319 320 317 312 312 313 313 314 315 318 318 315 314 316 317 320 319 312 313 316 315 316 315 313 314 315 316 316 314 315 317 318 322 317 315 315 312 312 313 316 321 319 313 307 301 298 299 298 297 297 297 296 296 295 294 294 294
320 320 320 319 318 317 317 318 319 319 318 317 318 320 319 319 317 316 321 326 329 325 318 315 316 321 320 314 313 315 317 318 319 316 311 311 314 313 313 315 316 317 315 314 314 316 318 316 313 315 315 314 317 318 317 318 317 319 320 315 315 317 319 320 316 315 319 320 314 312 321 330 326 320 312 302 300 300 299 299 298 297 296 296 296 295 294 294
321 320 318 318 318 317 317 319 319 319 319 317 319 321 320 319 317 315 321 330 330 326 320 318 319 321 318 314 313 315 320 320 314 311 311 311 312 313 314 314 314 317 317 315 315 318 318 313 314 321 320 315 316 318 318 317 318 322 321 317 314 314 317 319 317 318 323 324 314 310 319 328 330 326 313 303 303 302 300 300 299 298 298 297 297 296 295 295
322 320 319 318 318 317 317 319 319 319 320 319 319 321 320 319 316 314 321 331 329 325 323 320 317 318 317 312 312 319 326 321 312 310 311 311 311 312 316 316 314 316 316 317 320 320 318 314 314 319 321 319 317 319 318 314 321 325 318 317 317 315 318 320 319 320 323 321 315 314 317 320 324 323 311 303 306 304 300 300 299 298 298 297 297 297 296 295
322 321 320 319 318 317 317 318 319 318 319 320 319 321 320 317 316 317 326 334 329 321 322 319 314 313 312 309 313 320 318 315 318 314 308 309 311 311 317 319 318 318 316 319 323 319 316 319 319 317 318 319 318 322 319 314 322 323 313 314 317 316 318 320 319 319 317 315 320 321 316 316 323 323 311 304 309 310 304 302 300 299 298 298 297 297 296 295
321 321 320 320 319 317 317 318 318 318 319 320 320 321 319 315 316 322 329 332 328 320 319 317 312 312 312 311 314 316 311 312 319 314 307 309 310 311 316 318 319 318 314 317 324 320 313 315 318 318 320 321 319 318 314 315 320 315 308 312 315 314 316 317 317 318 315 315 323 324 316 317 325 327 318 311 314 316 309 303 300 299 298 298 298 297 295 295
321 321 320 319 318 316 317 319 318 319 320 319 320 318 316 318 321 328 330 330 328 321 315 314 313 314 315 316 317 314 312 313 313 312 311 312 311 311 312 312 315 318 315 317 321 318 310 307 311 317 319 318 317 311 308 313 315 309 312 317 317 318 318 318 319 317 316 320 323 320 316 317 321 326 322 316 317 316 310 305 301 299 299 298 297 296 295 294
321 320 320 319 318 316 317 318 318 320 320 318 318 315 318 324 326 331 331 327 325 321 316 315 314 315 317 321 321 315 313 314 311 313 315 312 313 314 313 313 317 322 321 319 319 314 310 310 312 314 313 312 314 311 306 307 307 311 322 322 319 322 319 319 322 318 320 326 322 313 312 315 319 325 323 316 315 312 310 308 302 299 299 298 297 296 295 294
321 320 319 319 318 316 317 319 319 320 319 316 316 316 323 328 328 331 330 325 326 324 320 319 315 316 318 320 320 315 314 316 312 314 317 315 315 315 316 319 320 326 326 321 320 317 315 316 314 311 309 311 318 317 310 307 307 314 323 321 322 325 320 321 324 319 321 323 314 309 312 314 316 322 321 317 316 311 307 306 302 299 299 297 296 296 295 295
320 319 319 319 318 316 317 319 319 320 318 314 316 319 326 330 328 330 328 326 327 321 319 320 316 317 318 319 318 312 314 316 313 314 315 315 316 314 316 318 317 326 330 321 319 320 320 318 313 311 311 313 318 319 316 315 312 314 319 321 325 326 325 330 325 319 321 318 309 308 312 315 316 318 317 314 312 307 303 304 302 299 298 297 296 295 295 295
320 319 319 319 317 316 317 319 320 320 317 314 319 323 327 329 328 329 328 326 324 320 317 318 316 316 318 319 318 314 316 317 313 314 315 313 317 317 317 316 313 322 327 320 319 321 324 324 317 315 316 314 314 316 320 319 313 313 317 318 322 326 330 331 327 326 326 319 311 309 313 321 322 316 310 304 302 300 300 301 300 299 298 298 296 295 295 294
320 319 319 318 317 316 317 319 320 321 317 316 321 325 327 329 328 330 330 326 325 321 316 315 317 318 318 318 316 314 318 318 312 314 315 315 318 318 319 316 313 319 324 322 321 318 321 326 320 313 312 312 314 315 316 317 314 313 314 316 320 324 325 321 318 320 320 318 315 312 316 321 318 311 302 299 300 299 299 300 299 300 298 297 297 295 295 294
320 319 318 318 317 317 317 318 321 320 317 318 323 325 327 327 328 331 328 325 324 319 315 316 319 320 319 318 315 312 314 316 314 315 315 315 317 317 318 318 314 315 319 323 323 318 320 324 315 310 310 310 311 314 313 316 318 314 313 318 318 315 321 322 314 309 310 317 319 315 317 317 313 312 306 302 303 302 300 300 300 299 297 297 297 295 294 294
319 318 318 317 317 317 316 318 320 318 317 321 325 325 325 326 330 331 328 324 319 315 317 321 321 320 321 320 318 315 314 316 314 316 317 315 317 317 316 318 315 312 315 319 321 321 325 325 314 310 314 308 305 312 313 312 315 316 317 320 314 310 318 323 318 316 316 321 321 316 317 317 316 318 312 306 308 308 303 300 299 297 297 297 296 295 294 294
318 317 317 317 317 316 316 318 319 317 318 322 325 326 324 325 327 328 325 321 316 316 321 325 322 321 321 321 321 315 315 318 315 315 318 316 318 318 315 317 316 312 312 314 317 319 322 324 316 310 313 309 304 312 315 309 309 315 316 315 315 318 321 319 319 323 322 323 324 317 314 315 317 319 316 312 313 312 305 299 298 297 296 296 296 295 295 294
318 318 318 318 317 316 316 317 317 317 320 323 325 326 325 325 325 327 325 319 316 319 322 325 324 322 320 321 321 315 314 318 315 314 317 317 318 317 314 316 317 313 312 312 315 318 316 321 320 311 309 310 308 312 317 313 309 310 311 310 313 318 320 319 318 320 321 323 325 320 316 319 318 317 318 315 313 311 307 302 299 297 296 296 296 296 295 294
317 319 320 318 317 316 316 316 317 318 322 324 325 325 326 325 324 326 325 320 320 320 322 326 326 323 321 319 319 317 315 315 313 314 318 317 316 316 313 314 316 313 312 311 314 317 314 317 321 313 307 311 315 315 316 315 311 311 312 313 313 314 316 318 316 316 320 325 326 323 321 320 317 315 315 313 310 308 307 306 301 297 296 296 296 296 295 294
317 320 320 317 316 316 316 317 319 320 322 323 324 323 323 324 324 324 323 320 322 322 322 328 327 324 322 318 319 319 316 316 314 314 317 315 316 319 315 313 315 313 312 311 313 317 316 317 322 317 311 315 319 314 310 312 313 313 314 314 314 314 316 318 317 315 316 319 322 322 321 318 316 312 310 311 311 308 305 304 302 298 297 296 296 296 295 294
318 321 319 316 317 316 316 320 320 321 322 322 323 323 322 323 324 323 321 319 322 323 322 326 328 326 324 320 320 320 318 319 316 314 318 316 315 320 316 312 313 312 312 314 314 316 319 320 322 320 315 315 314 309 307 310 312 313 314 314 315 314 316 319 320 317 315 315 315 316 320 319 312 307 308 310 309 306 302 301 301 299 297 296 296 295 295 294
320 319 315 314 316 316 317 321 321 320 321 320 321 322 322 323 322 322 321 320 322 324 323 323 324 325 325 323 322 321 318 319 316 315 320 319 315 318 316 312 311 311 313 316 314 315 317 319 320 319 317 315 312 309 309 309 311 313 315 315 315 313 315 318 318 317 318 317 315 315 319 318 310 306 308 306 303 303 301 300 300 299 297 296 296 295 294 294
318 315 312 313 316 316 318 320 320 319 319 319 319 320 321 322 321 322 322 321 321 323 323 323 323 324 326 325 324 322 319 320 319 316 319 321 316 314 314 313 311 312 315 316 316 314 316 319 320 320 321 319 316 315 313 311 312 316 318 316 314 314 315 316 315 316 318 317 317 318 319 318 313 308 307 305 303 304 303 299 299 299 298 296 295 295 294 294
316 313 312 312 313 315 318 319 318 317 317 318 319 319 319 320 321 321 321 321 322 323 324 324 323 324 325 323 322 322 319 321 324 319 318 321 317 312 313 314 312 314 316 318 318 314 317 321 320 320 322 323 322 321 318 317 314 314 317 316 313 313 314 315 316 316 317 317 317 317 318 318 315 310 310 308 306 308 306 300 298 299 298 297 295 295 294 294
318 316 313 313 312 313 315 315 317 318 317 317 318 318 319 320 320 320 320 321 321 322 323 324 323 323 323 321 321 321 319 320 324 321 318 320 318 312 311 312 314 315 316 316 316 315 321 322 318 319 321 321 324 322 319 320 319 316 317 316 314 313 312 314 317 317 317 318 317 316 317 318 316 313 312 311 310 312 310 303 299 299 298 296 296 295 294 294
318 317 313 314 314 313 314 314 316 318 318 317 318 318 318 319 320 320 320 321 321 321 321 321 321 322 322 321 321 322 321 319 320 321 319 319 317 311 308 310 313 314 314 314 314 316 321 321 318 319 319 320 325 321 316 318 320 318 317 317 315 312 311 314 316 316 318 318 318 318 317 318 318 315 314 315 314 313 310 305 301 299 298 297 296 295 295 294
314 315 313 314 315 315 314 314 315 317 318 318 318 318 319 319 320 321 320 319 319 320 321 320 320 322 322 322 323 323 322 320 320 320 319 318 317 313 310 311 311 311 312 314 314 317 320 320 318 318 318 318 321 318 314 316 319 319 319 318 315 312 311 313 313 314 318 318 317 318 318 317 317 315 316 316 312 310 309 306 302 299 298 298 296 296 295 294
309 311 310 310 313 315 314 314 315 316 317 318 318 318 319 319 319 320 319 319 319 319 321 322 321 321 321 321 323 323 321 322 321 319 318 317 317 316 315 314 312 309 311 314 315 316 319 320 319 318 318 318 318 316 315 316 317 317 317 317 316 313 311 312 312 313 315 316 315 316 316 315 315 316 316 311 307 307 306 304 301 300 300 300 298 297 296 294
309 310 309 310 311 311 312 314 314 315 316 316 317 317 317 318 319 320 318 318 320 319 320 322 321 320 320 320 322 322 320 321 321 319 317 317 317 316 316 316 313 308 309 313 314 313 316 318 316 315 318 318 314 313 314 314 314 315 316 316 315 313 312 312 313 312 312 313 313 313 313 312 312 315 315 309 306 306 306 305 304 303 302 301 299 297 296 295
301 302 305 310 311 309 310 312 313 315 315 314 315 315 315 316 317 319 316 314 317 319 319 320 320 319 318 318 320 320 318 318 319 318 317 316 316 316 316 315 313 310 310 311 312 312 314 314 312 314 319 318 311 310 311 310 310 312 314 313 312 312 313 312 311 312 313 313 313 312 312 312 311 311 311 308 307 308 308 307 305 304 303 302 302 301 298 297
300 301 303 309 310 307 307 309 310 313 313 312 312 312 313 314 315 317 316 312 313 316 314 314 317 317 317 317 318 317 315 315 314 312 312 314 314 314 315 314 313 313 311 309 310 311 311 312 313 314 319 316 308 307 310 309 311 314 314 314 313 311 311 310 309 309 310 311 313 312 312 312 311 309 307 307 308 308 309 307 306 306 303 301 302 302 299 298
Wind_Speed
1 2 2 3 2 2 2 3 3 2 2 3 2 2 2 1 1 1 1 2 3 4 4 5 5 6 8 9 10 12 13 13 11 9 6 2 1 4 3 2 3 4 4 2 1 2 3 4 5 6 4 3 5 2 2 2 2 4 3 3 2 2 2 4 6 5 3 2 3 1 1 3 1 4 2 1 2 3 4 5 4 3 4 9 10 13 15 14
3 3 3 3 3 3 4 4 3 3 3 3 2 3 2 1 1 0 1 2 3 4 4 5 5 6 7 8 10 12 14 14 8 6 6 2 3 5 4 2 4 5 5 3 1 2 3 2 3 6 5 3 3 2 2 2 3 3 3 3 1 5 3 4 6 5 3 1 3 2 1 2 1 2 2 2 4 5 5 5 5 5 3 9 15 19 19 19
4 5 4 3 3 4 4 4 4 4 4 3 3 2 2 1 0 0 1 2 3 4 5 5 6 6 7 8 10 12 14 11 5 4 6 4 5 5 3 3 4 6 4 3 3 4 5 3 2 5 4 3 2 2 3 3 2 2 3 3 3 5 3 3 5 6 4 1 2 2 1 1 2 3 1 2 6 4 2 3 3 5 5 6 11 18 21 22
4 5 6 5 5 5 4 4 4 4 4 3 3 2 1 1 0 0 1 2 3 4 5 5 6 7 7 8 9 11 12 8 2 2 4 4 5 4 3 3 5 6 4 4 5 5 6 5 5 5 4 3 3 3 3 3 1 2 3 3 4 2 1 3 5 5 3 2 2 1 2 4 2 2 1 2 3 4 0 3 2 4 5 5 6 13 19 20
4 4 5 7 6 5 4 4 3 3 3 2 2 1 1 1 0 1 2 2 3 4 5 6 6 7 7 8 8 9 9 6 1 2 3 3 3 3 2 4 5 5 4 5 6 6 5 4 6 6 4 2 4 4 2 3 1 1 1 3 4 3 1 3 4 3 2 2 1 0 3 2 1 1 2 4 2 2 2 3 3 4 4 5 6 9 14 17
5 5 5 6 6 6 5 4 4 3 2 1 1 1 1 1 1 1 2 3 4 5 5 6 6 6 7 6 6 6 6 1 3 2 1 1 2 1 2 4 5 5 4 5 6 5 4 5 6 4 3 3 2 3 0 3 2 1 1 1 3 4 2 2 2 2 3 2 1 2 1 0 2 3 2 3 1 0 2 3 5 7 7 7 8 9 11 13
7 6 6 6 6 6 5 4 4 3 2 1 1 1 2 2 1 2 3 4 4 5 6 6 6 6 5 5 5 5 4 3 5 3 3 2 2 2 2 4 5 5 4 5 6 4 3 5 4 3 3 3 1 2 1 3 4 3 1 2 1 4 4 3 2 2 3 2 4 2 1 1 0 2 1 3 3 3 4 5 8 9 9 10 10 11 11 12
8 7 7 7 7 6 5 4 3 3 2 2 2 2 2 2 2 2 3 4 5 5 6 6 6 5 4 2 2 4 2 4 4 4 5 3 4 4 4 4 5 5 4 4 5 5 4 4 3 4 3 1 2 3 1 2 4 3 2 2 1 3 5 4 3 4 5 5 4 0 1 3 4 3 2 4 3 3 4 7 8 8 10 12 11 11 11 12
8 8 8 8 7 7 6 5 4 4 3 3 2 2 2 3 2 3 3 4 5 5 5 5 5 4 2 2 5 3 3 3 2 2 3 4 5 4 5 5 5 5 5 4 4 7 3 2 3 3 3 1 3 3 1 0 1 2 3 2 2 3 5 3 4 4 5 4 1 1 2 1 2 1 4 3 3 3 4 7 6 7 10 10 9 10 11 12
9 9 9 9 8 8 6 5 5 5 5 4 3 2 2 3 2 3 3 4 4 4 5 4 4 2 1 3 6 1 4 1 0 1 1 3 4 4 5 4 4 4 5 5 5 7 3 4 5 5 5 2 2 2 0 1 1 3 3 3 4 4 5 2 3 3 3 3 3 4 3 1 2 0 3 1 2 2 5 7 6 7 9 8 7 8 10 12
9 9 9 9 8 8 7 7 6 6 5 4 3 3 3 2 2 3 3 4 4 4 4 3 2 1 2 4 5 3 4 1 1 1 1 2 3 4 5 4 4 4 5 5 6 6 3 7 10 6 2 2 2 2 1 2 3 1 1 4 6 6 6 2 3 4 1 2 4 6 2 2 3 2 3 1 2 3 6 7 6 8 6 6 6 7 9 10
9 10 9 7 8 8 7 7 7 7 6 4 3 3 2 2 2 3 3 3 4 3 3 2 1 2 3 3 3 6 4 2 1 1 1 2 3 4 4 4 4 4 5 5 6 6 3 8 11 6 0 3 3 1 1 1 2 1 3 3 8 8 6 5 4 4 2 0 3 4 0 4 5 2 1 1 2 3 6 6 7 6 4 5 5 5 7 10
10 11 8 6 7 7 7 7 7 7 6 3 3 2 2 2 2 3 3 4 4 3 2 2 1 3 4 1 4 8 8 5 3 1 1 3 4 4 5 5 5 5 4 5 6 6 5 8 9 6 2 5 2 1 3 3 2 1 3 2 5 7 6 5 3 4 3 1 1 0 1 4 3 4 4 2 2 1 6 6 5 4 4 4 4 4 6 10
11 12 9 6 6 7 7 6 7 7 5 3 3 2 2 2 2 3 3 4 4 3 2 0 3 5 4 3 4 4 8 8 6 5 4 5 6 7 7 6 5 5 4 5 6 6 7 9 9 7 3 3 2 2 4 5 3 1 1 2 2 2 5 6 3 4 2 0 2 1 2 3 4 4 6 4 2 3 5 4 4 4 4 4 4 5 5 8
12 12 9 6 6 7 7 7 8 7 4 3 2 1 2 2 3 4 3 3 3 2 1 3 5 5 3 4 4 3 5 5 6 7 6 8 9 8 7 8 8 8 7 7 9 9 9 9 8 6 1 2 3 4 3 4 4 3 1 3 2 1 5 7 3 2 1 1 4 3 2 3 4 3 7 6 2 6 6 3 4 3 4 4 4 5 4 6
12 11 9 6 6 6 6 7 7 6 4 4 2 1 1 2 3 3 2 2 3 3 3 3 5 5 1 3 2 2 4 4 6 7 8 10 8 7 10 10 10 10 10 10 11 10 8 7 5 3 2 2 4 5 3 3 4 3 0 3 2 2 3 6 2 2 1 1 4 2 2 2 2 2 6 5 3 5 5 3 3 3 4 4 4 5 5 5
11 10 9 8 7 6 6 6 7 5 3 3 2 1 1 2 2 2 2 4 5 4 4 4 5 3 1 2 1 2 2 4 6 8 9 8 7 9 12 9 8 9 10 9 8 6 6 5 1 0 3 3 3 4 3 2 4 3 1 2 3 3 2 3 3 2 5 2 2 3 1 3 3 2 4 4 3 4 5 3 3 3 3 4 4 5 5 5
9 9 11 10 8 6 7 7 7 4 3 2 1 1 2 2 1 2 4 5 6 5 4 2 4 2 3 2 2 2 2 4 6 8 9 8 8 10 9 6 7 9 8 5 3 3 4 4 2 1 3 2 2 5 3 5 4 3 2 2 3 3 3 3 3 2 4 3 2 3 3 7 3 3 3 4 3 4 5 2 2 3 3 4 4 4 4 5
10 8 9 9 8 8 8 9 7 4 3 2 1 4 4 3 1 1 4 5 3 2 1 3 3 2 3 2 1 3 5 6 6 6 8 9 9 9 8 8 7 7 5 2 1 1 1 3 3 1 1 3 6 7 8 7 5 6 5 4 3 3 4 5 4 4 2 3 4 3 5 8 5 1 2 3 2 4 4 2 2 3 3 3 3 3 4 4
12 10 8 9 8 8 8 10 8 6 3 3 4 5 3 2 2 2 1 2 4 5 3 5 6 2 2 1 3 7 7 5 3 4 9 11 12 11 7 5 6 6 3 4 2 1 3 3 3 6 6 8 10 9 6 4 6 6 5 4 4 4 4 4 3 5 1 1 5 4 5 9 7 2 2 2 1 3 3 3 3 3 3 3 3 3 3 3
14 12 12 13 10 8 9 10 8 7 4 5 7 4 2 3 2 2 2 4 9 9 6 6 5 4 3 2 8 10 5 2 2 3 10 11 11 10 2 2 5 2 1 3 3 2 4 4 9 8 7 8 7 7 5 4 5 5 4 3 3 4 5 4 1 3 2 2 3 1 2 9 7 2 3 2 2 3 2 2 2 2 2 2 2 2 2 1
15 13 15 15 10 8 9 9 8 6 5 7 6 3 2 2 2 0 0 2 8 10 9 6 3 6 4 3 9 9 3 2 0 2 9 9 5 5 1 4 5 4 1 3 3 2 2 6 10 5 6 5 4 5 6 4 3 3 3 3 3 3 3 5 2 3 2 2 3 1 1 8 5 1 3 2 2 1 2 1 1 1 2 1 1 1 2 1
18 16 18 16 10 9 10 9 7 5 8 8 7 5 2 0 1 1 2 1 5 4 5 5 5 6 5 3 8 8 2 4 4 5 11 10 3 3 5 5 5 5 3 5 6 5 3 7 8 5 8 7 4 4 6 4 2 3 3 3 4 2 1 3 3 3 2 0 2 1 3 6 2 1 2 1 1 2 1 2 1 1 1 1 1 1 2 2
21 18 19 15 9 10 11 9 7 8 11 10 11 11 4 2 3 2 1 0 4 4 4 7 6 5 7 5 10 12 4 4 4 5 12 12 4 3 5 5 5 5 5 8 8 6 5 5 2 6 7 7 5 4 6 5 2 3 5 6 5 4 5 6 2 2 2 3 0 2 3 5 2 2 2 0 1 1 1 2 2 1 1 1 1 1 2 2
24 20 17 14 10 11 12 8 8 12 10 8 13 14 8 4 4 3 1 2 4 4 3 5 4 5 8 7 11 11 2 2 3 4 13 13 7 4 3 3 4 5 7 6 6 5 6 4 4 7 4 5 6 4 5 7 3 3 5 10 10 7 7 5 1 3 2 3 2 2 2 5 2 2 3 2 2 2 0 2 2 0 0 1 1 1 1 2
26 21 17 15 13 13 12 6 10 13 9 10 13 11 10 8 6 4 3 3 5 4 0 3 4 6 9 6 8 7 3 3 3 2 10 11 6 5 3 2 1 4 6 6 4 3 3 1 4 6 5 5 6 4 6 7 5 2 4 8 10 7 5 4 3 2 1 3 2 2 3 4 5 4 2 2 2 2 1 1 2 2 1 2 2 1 1 1
27 23 20 19 16 16 12 4 10 12 5 10 12 11 12 11 9 5 3 3 6 3 4 2 1 5 8 4 4 7 2 3 2 3 4 6 3 3 3 4 2 2 4 4 1 3 3 2 3 5 6 5 5 4 6 8 7 3 3 4 7 7 6 6 6 4 3 2 2 2 2 2 4 4 2 1 2 3 3 3 3 3 4 3 3 2 2 2
28 25 23 22 20 22 16 4 10 15 7 7 10 14 15 13 10 4 4 1 5 3 4 1 1 3 3 1 3 5 2 1 4 1 1 3 2 3 2 6 6 5 3 5 4 3 3 5 5 7 5 4 5 4 8 10 5 4 2 6 6 6 6 5 5 3 1 1 3 3 1 1 4 4 2 1 2 6 5 6 6 6 6 5 4 4 3 2
30 28 25 24 21 24 22 10 8 14 12 7 12 18 17 13 8 4 4 3 2 2 2 1 2 2 2 3 3 3 1 2 2 2 2 3 1 3 2 5 6 6 1 2 5 3 1 4 7 8 5 6 4 1 7 9 4 4 6 7 6 5 5 4 4 3 2 0 5 5 4 3 4 4 2 1 3 8 6 7 7 6 6 6 6 5 4 3
33 30 27 25 23 26 27 19 13 12 10 10 16 20 17 9 4 4 3 5 1 1 1 2 2 0 5 7 0 1 2 2 1 1 2 1 3 5 2 2 6 6 1 4 1 2 1 1 2 4 4 5 4 3 2 4 4 6 6 6 6 5 4 3 2 3 2 2 6 6 5 4 3 4 4 4 4 5 6 5 6 6 7 8 6 5 5 4
34 30 28 29 27 29 25 19 20 15 8 15 20 19 13 3 3 4 7 3 1 1 2 1 1 3 9 9 3 2 3 2 1 4 3 1 2 4 1 2 4 4 2 3 2 3 2 1 2 1 2 4 6 5 4 3 4 5 4 4 4 3 3 3 4 3 1 5 5 4 2 3 4 4 4 5 4 4 7 8 10 11 10 10 7 5 5 5
35 30 30 32 30 31 23 16 24 19 10 19 21 11 6 2 1 8 6 1 0 4 4 3 3 5 8 4 3 4 4 2 2 4 4 3 4 4 4 5 5 3 1 4 2 2 2 3 2 0 1 4 6 5 4 3 2 4 4 5 4 2 2 1 3 1 3 5 3 2 1 3 5 6 7 6 5 5 5 5 11 15 13 11 8 6 5 5
35 31 32 33 31 34 28 18 24 23 16 22 16 4 3 4 9 12 8 3 2 2 4 3 2 4 7 4 2 3 3 2 3 3 2 3 4 5 4 3 5 3 1 5 3 1 2 4 1 3 1 3 7 6 3 2 2 4 5 5 4 2 1 3 3 2 4 4 2 2 1 2 4 5 6 5 4 4 3 2 4 10 13 11 9 7 6 6
35 32 34 35 33 36 33 22 23 26 22 19 9 3 5 8 11 9 10 8 2 2 3 4 5 5 6 4 3 4 3 2 5 4 2 4 4 5 5 5 4 3 4 3 3 5 3 4 5 6 3 5 9 6 5 7 5 4 4 5 4 5 4 4 4 3 4 2 2 3 2 4 3 2 3 3 3 3 2 2 1 3 6 7 7 6 7 7
35 35 35 35 34 37 35 25 24 29 24 14 5 5 9 13 9 5 8 7 2 2 3 3 6 6 4 2 3 5 4 2 4 5 3 5 5 6 5 6 7 4 5 4 2 3 3 5 4 1 1 7 9 4 5 7 4 2 2 4 3 4 4 2 3 4 2 1 2 2 3 4 4 2 2 2 3 3 2 1 1 3 4 6 6 7 8 7
37 37 35 34 34 37 39 30 28 33 24 10 6 9 11 13 6 3 5 5 4 6 6 3 3 5 4 2 2 6 2 1 5 4 3 3 3 5 4 5 9 9 7 6 3 2 2 4 4 2 2 3 5 3 3 3 3 2 2 4 4 3 6 4 2 1 3 2 4 3 3 3 1 2 2 2 2 3 2 1 3 5 6 7 8 9 9 8
38 34 29 31 34 37 40 35 33 34 20 7 10 12 10 10 6 5 5 4 6 10 9 4 4 6 6 4 4 7 3 1 4 4 3 3 3 6 6 4 7 13 11 5 2 3 4 2 3 1 1 1 0 3 4 3 3 6 3 5 3 2 4 3 2 2 2 3 4 2 4 3 2 2 2 1 3 6 4 2 3 5 7 9 11 10 9 8
35 27 21 30 40 40 41 40 35 27 10 4 13 14 10 8 5 5 4 4 6 9 8 8 7 6 7 6 5 7 7 4 5 5 4 4 4 7 11 5 6 15 15 6 1 3 4 1 4 1 2 1 2 3 4 4 2 5 4 3 4 3 2 2 2 2 1 4 4 2 2 3 5 5 3 5 9 9 7 4 5 9 11 12 12 11 10 8
27 15 10 28 43 42 45 45 31 14 4 6 13 13 9 7 4 4 5 5 5 8 10 9 6 4 6 7 5 7 9 7 8 6 4 5 4 6 11 7 5 13 15 10 4 2 3 3 3 1 1 1 1 2 4 2 1 3 1 2 3 2 4 3 2 2 3 3 3 3 2 3 6 6 9 13 13 11 9 7 9 12 13 13 12 12 12 10
17 6 4 24 43 44 46 39 18 6 5 8 11 9 5 4 3 3 6 5 3 5 7 7 7 5 5 6 4 5 7 7 8 7 4 6 5 5 9 8 5 8 9 8 5 2 3 3 3 1 2 1 2 4 7 8 5 3 3 4 2 1 2 1 1 2 3 3 2 3 4 4 4 4 9 11 10 10 12 12 12 12 13 13 12 13 12 11
10 6 3 23 45 46 38 21 7 6 7 9 13 11 5 3 3 4 5 4 1 1 2 4 7 6 5 6 4 4 6 6 8 7 4 7 6 4 7 8 9 9 6 5 6 4 4 3 4 2 1 4 4 4 3 6 7 6 6 7 7 5 4 2 4 1 2 2 3 2 5 5 3 2 5 5 4 6 10 11 11 11 13 13 12 12 12 11
8 7 4 26 50 46 25 7 6 8 8 9 10 7 3 3 3 5 4 2 1 1 1 2 3 4 5 5 4 5 7 5 7 7 5 7 8 4 3 3 9 13 10 5 5 4 3 3 4 3 3 4 4 3 1 2 3 4 4 5 6 5 5 5 6 3 2 1 2 2 4 5 2 2 3 3 3 3 6 8 8 9 10 11 10 9 9 9
6 5 5 26 52 44 16 7 10 9 9 10 6 3 4 3 3 5 5 5 4 2 2 2 2 3 4 3 4 6 7 5 8 8 3 3 5 3 2 1 8 12 8 3 3 3 2 3 4 1 2 2 3 2 1 3 3 2 3 3 5 5 4 5 4 3 3 4 3 2 5 4 2 2 2 3 3 2 4 7 8 7 6 7 9 9 8 8
3 2 2 19 43 38 15 9 13 11 11 10 8 8 7 3 5 8 7 8 6 3 4 4 3 3 3 3 4 6 8 6 6 8 4 2 4 1 2 2 7 8 5 2 4 6 4 4 5 3 0 1 2 2 1 1 2 4 3 3 6 6 5 2 1 3 2 6 7 5 8 5 1 2 2 1 1 2 4 5 6 6 6 7 8 9 9 8
3 1 3 6 19 18 8 8 11 12 13 12 11 13 10 5 5 8 9 9 5 4 5 3 3 4 3 4 4 4 8 6 3 4 3 3 2 1 4 2 2 3 3 4 2 7 6 4 6 7 7 8 6 5 5 4 3 2 2 4 7 9 9 5 2 3 5 5 8 8 9 4 1 3 4 3 1 2 5 5 5 6 6 7 8 8 9 9
4 2 1 2 2 3 1 2 6 9 12 13 11 11 14 11 4 4 9 10 8 8 5 1 3 5 3 6 6 5 8 5 1 3 4 4 2 1 2 3 3 1 3 6 2 5 3 3 8 11 11 9 7 4 4 6 6 5 6 8 9 11 11 7 3 5 6 4 4 9 5 3 5 5 5 5 3 4 5 4 5 6 7 7 7 7 8 8
4 3 4 3 0 2 2 1 6 9 11 12 8 6 14 15 6 3 7 8 8 10 5 1 5 8 7 9 8 6 7 5 2 4 5 4 2 2 2 3 3 1 2 4 2 2 2 4 8 10 9 5 4 3 4 7 8 9 9 10 11 10 10 11 9 8 6 5 9 8 6 3 11 6 6 7 6 6 6 6 7 7 6 6 5 6 8 8
2 2 3 2 1 4 6 6 9 10 11 12 7 5 11 15 11 8 6 3 4 9 7 2 7 13 13 12 9 6 7 6 5 6 5 3 3 2 2 2 1 1 1 1 1 2 3 4 3 5 5 3 5 3 3 5 5 6 8 11 11 10 12 14 15 11 8 8 13 5 7 9 12 5 8 10 8 8 7 6 6 4 4 5 6 7 9 9
1 1 0 1 1 3 5 4 8 10 11 10 7 7 12 15 14 9 4 3 3 7 9 8 10 12 12 11 10 7 8 8 8 8 6 5 4 4 2 1 1 2 2 2 0 1 3 3 1 4 6 4 4 3 3 5 3 3 6 11 11 11 13 15 16 13 9 10 10 1 5 12 8 5 9 8 4 5 4 3 4 4 5 6 7 8 9 9
1 0 0 1 1 0 0 3 6 8 8 6 6 7 9 12 14 7 3 4 5 5 8 12 12 11 10 11 10 9 11 10 7 8 9 8 6 5 4 4 2 2 2 3 2 1 3 3 3 4 4 4 3 4 4 5 5 5 11 15 10 7 9 13 12 7 5 9 8 4 8 11 6 5 6 2 2 4 4 4 5 5 5 6 7 8 8 9
2 1 0 3 2 1 1 2 4 6 5 5 5 5 7 11 11 6 2 1 2 4 6 9 9 7 6 9 10 8 6 5 5 5 8 8 6 4 3 4 5 6 4 3 2 2 2 1 2 3 4 3 3 5 5 3 2 6 17 17 9 7 9 9 7 6 8 10 9 8 10 9 4 5 4 2 3 5 5 6 5 5 6 7 8 8 8 9
2 2 2 2 2 2 2 1 2 4 4 4 4 3 4 6 5 6 4 1 3 3 3 3 4 4 3 6 8 4 4 7 7 4 4 4 4 3 3 4 6 6 6 4 2 1 3 3 2 3 4 1 2 4 6 5 2 8 15 11 11 12 8 4 4 8 11 10 8 8 9 5 4 6 6 5 5 6 7 6 5 6 6 7 8 8 7 8
Wind_Direction
341 316 290 282 269 259 259 269 270 263 248 240 249 259 259 252 255 291 301 312 322 329 344 348 354 354 351 353 351 346 344 341 336 344 353 333 198 167 147 110 129 137 145 152 150 138 83 49 27 30 72 61 14 348 19 25 66 55 83 81 69 174 170 171 183 191 155 263 258 5 115 126 351 306 308 35 41 2 344 322 312 336 67 67 37 25 29 36
328 320 309 302 277 263 260 263 262 260 252 238 235 237 230 191 185 340 318 325 332 334 343 346 354 352 351 353 349 350 345 337 343 20 25 17 158 156 152 127 130 135 142 145 127 127 105 40 0 38 56 47 353 340 25 9 51 79 115 78 204 199 198 186 178 192 177 206 251 302 105 130 164 255 338 340 304 5 9 314 351 351 19 39 22 28 36 42
322 326 320 309 277 263 258 258 253 250 249 232 217 215 203 167 172 328 320 326 334 336 339 345 350 349 352 352 354 356 345 342 7 27 22 62 135 139 138 137 139 139 144 142 122 105 114 126 71 60 49 51 358 348 38 10 19 134 112 78 235 214 230 224 195 207 206 175 261 299 71 24 236 224 340 308 291 3 37 280 3 334 329 13 8 19 29 38
309 317 320 316 295 270 261 260 256 248 243 221 195 190 190 174 178 318 326 326 335 334 334 340 345 347 350 352 1 357 349 5 32 336 30 81 128 123 122 143 148 147 151 147 130 102 107 106 75 65 63 52 335 13 53 344 351 136 104 147 216 186 237 231 207 221 227 189 171 158 0 329 269 214 131 150 303 350 322 260 2 334 349 10 351 12 24 33
284 298 311 312 303 285 268 260 257 244 236 209 173 185 225 244 338 7 331 323 328 328 331 336 340 346 348 353 3 1 8 31 290 274 60 94 132 122 132 150 155 157 151 147 138 110 103 88 62 52 54 55 344 27 46 311 92 102 52 168 188 148 252 247 206 232 205 151 115 45 327 309 201 221 162 160 264 306 320 336 45 48 46 28 3 11 21 29
272 285 295 300 302 292 278 267 252 232 231 218 183 230 258 265 329 355 327 318 322 323 327 333 339 345 346 353 357 15 47 39 252 218 93 122 149 149 159 160 159 158 147 144 138 114 89 53 54 58 47 58 21 57 77 304 52 95 322 239 206 172 220 247 189 235 166 105 307 226 282 81 67 328 206 155 246 292 21 28 69 61 56 48 33 28 25 26
267 279 284 286 288 282 280 270 241 223 235 238 247 273 293 302 314 340 330 320 320 324 330 334 338 342 347 356 355 34 75 252 256 221 247 240 202 209 177 183 172 168 166 143 128 117 92 63 75 128 82 60 180 117 97 337 42 89 258 291 206 179 214 217 161 215 179 213 251 207 23 329 126 292 233 85 62 74 59 54 67 63 55 53 45 37 32 27
262 275 279 278 278 271 267 260 233 219 227 225 258 289 302 315 318 327 327 317 321 327 331 335 340 351 359 17 47 30 19 246 250 240 253 243 223 209 189 200 186 185 181 150 139 141 122 90 136 155 80 15 175 114 65 2 39 83 224 276 161 203 241 242 233 240 230 242 251 307 318 237 210 192 95 63 74 69 61 53 52 59 53 46 42 36 30 27
256 273 275 272 270 263 251 240 224 219 220 217 240 270 291 315 321 318 315 315 323 326 333 341 340 357 6 79 86 27 281 227 241 264 255 230 221 203 199 204 193 194 167 148 154 149 148 161 185 179 142 180 145 106 341 348 328 202 182 242 267 283 292 286 253 229 224 239 172 241 289 152 225 167 80 59 99 91 59 55 40 49 50 42 39 34 29 28
254 268 270 268 264 261 245 227 223 218 216 219 235 264 288 311 313 310 314 319 326 329 341 341 332 357 166 113 88 22 253 185 319 266 225 216 208 199 204 200 187 192 160 144 154 145 154 190 170 147 134 127 126 104 345 125 159 190 169 240 257 295 299 278 261 239 215 239 173 219 280 77 273 37 105 53 88 108 66 53 36 51 52 44 42 37 33 31
250 260 267 267 262 262 245 225 224 216 215 221 244 272 284 309 315 316 319 321 330 341 343 336 335 1 158 118 114 211 242 208 244 113 141 200 188 190 193 186 177 187 172 144 161 160 147 174 149 120 124 135 118 61 292 182 109 120 15 293 296 321 305 306 319 296 267 238 177 183 226 14 342 44 119 333 35 93 82 59 38 50 45 40 45 41 39 34
240 252 264 267 262 265 249 227 222 217 216 223 255 274 294 314 316 323 325 326 331 340 335 329 321 184 137 82 169 220 235 195 199 104 136 171 165 176 172 177 167 169 180 146 167 173 136 164 140 101 151 143 124 42 211 169 84 65 34 333 310 345 333 326 348 315 351 45 180 163 187 359 0 358 349 12 95 91 76 58 36 43 33 34 39 38 43 33
242 250 255 262 266 270 255 232 224 219 211 227 268 279 300 314 326 330 329 329 328 333 326 315 245 166 127 13 229 224 232 226 235 238 172 169 163 162 153 160 152 147 165 137 155 164 148 166 137 102 120 111 125 186 112 58 43 291 40 38 316 352 332 312 356 324 347 69 289 141 283 318 308 289 325 358 194 84 54 44 28 30 22 28 30 33 39 31
238 249 251 257 265 268 257 235 225 217 211 241 264 261 297 319 328 330 335 333 334 330 321 111 165 147 126 243 240 228 236 234 237 228 200 189 160 137 131 131 130 132 141 130 137 139 143 153 119 97 103 82 137 135 51 15 21 336 11 42 0 357 285 299 346 345 0 37 356 84 231 270 244 281 340 340 268 104 71 35 21 22 22 26 28 32 33 29
231 243 253 259 265 266 255 234 219 207 215 251 246 245 299 324 327 338 347 341 4 43 77 120 152 134 90 275 252 231 233 219 211 207 192 182 160 132 126 125 117 114 116 116 119 120 128 133 104 89 94 8 85 94 27 353 15 30 332 309 349 161 269 309 337 24 68 324 14 100 214 276 214 269 343 351 18 91 93 48 29 21 22 29 28 32 30 24
234 237 249 262 268 268 253 230 204 194 221 241 220 236 296 333 345 8 27 46 78 84 87 121 143 123 87 269 232 214 222 199 194 192 177 172 167 142 130 122 110 106 108 105 109 111 103 96 76 74 126 64 78 91 46 3 344 358 66 250 272 190 276 321 322 3 20 303 2 58 221 285 165 247 332 6 40 81 97 73 43 31 28 37 33 34 32 21
241 238 251 268 270 266 251 212 180 186 221 218 199 218 329 354 6 62 85 95 101 88 87 126 126 96 255 215 208 254 217 179 178 177 174 167 163 149 133 114 99 104 103 97 103 96 54 52 64 345 61 68 104 100 64 323 284 307 24 230 250 212 216 305 289 332 15 63 356 16 276 253 158 149 339 15 39 82 93 75 51 47 35 39 38 39 34 26
236 233 239 257 265 263 242 194 177 197 214 212 203 126 92 53 57 126 143 129 105 76 68 107 103 57 266 209 191 218 140 150 160 163 167 152 148 152 136 113 110 104 85 64 64 60 21 27 72 68 35 38 129 113 157 226 217 188 177 199 253 244 220 258 259 280 4 15 345 5 299 265 206 113 20 19 42 88 95 90 79 60 43 46 42 46 38 30
227 226 230 250 261 263 233 189 184 194 191 227 144 118 96 59 50 152 158 139 120 121 196 214 152 143 235 237 167 136 117 131 143 152 154 143 142 137 114 105 105 94 90 80 38 74 76 53 64 143 184 192 185 176 196 202 159 160 168 153 182 231 246 233 237 263 331 6 304 267 264 271 258 83 24 11 44 92 106 95 78 52 43 46 40 43 40 37
225 227 234 254 265 268 229 193 189 182 194 222 151 121 106 76 24 310 234 187 208 193 174 200 190 180 257 270 144 135 123 117 127 154 153 151 142 121 88 71 67 62 104 150 161 129 106 125 203 217 199 196 200 196 188 151 117 126 129 134 183 220 258 237 232 292 330 125 274 255 257 274 270 298 340 314 45 74 66 57 52 41 42 36 40 37 30 40
224 228 237 248 260 264 224 197 184 174 209 209 158 134 170 166 136 289 270 257 243 226 224 219 203 242 269 171 158 152 133 82 45 146 156 159 146 134 87 43 89 80 230 155 142 61 86 174 227 225 191 189 196 183 152 118 112 110 130 171 229 222 247 258 220 315 336 178 266 353 301 273 266 288 334 337 58 48 19 54 61 48 56 36 43 30 10 27
223 228 234 238 247 249 219 198 181 179 222 206 174 188 234 191 154 210 171 291 268 236 228 235 229 260 256 169 175 166 116 92 70 209 171 156 147 167 155 83 132 172 198 124 115 64 97 224 238 210 147 129 107 147 160 161 139 110 118 165 244 228 251 289 304 341 3 182 258 21 265 265 266 330 355 11 68 55 358 75 123 100 90 50 41 19 12 31
223 231 235 229 233 237 215 195 179 197 228 208 191 202 219 323 134 98 115 285 293 251 208 210 210 227 221 213 194 173 157 177 181 230 185 155 134 182 142 121 146 141 148 175 159 147 178 247 244 166 136 125 91 114 140 139 150 154 149 173 236 220 188 273 291 329 0 39 259 191 277 269 249 12 2 30 113 116 62 76 73 72 102 51 1 351 12 33
226 231 233 222 223 231 208 187 186 216 227 219 219 209 169 103 156 144 78 263 284 274 221 204 197 202 197 199 184 174 197 196 172 207 183 160 133 155 157 147 135 134 191 196 172 179 217 251 205 121 135 149 132 118 137 151 218 228 202 204 223 202 207 234 264 324 348 3 1 144 309 292 214 205 229 179 159 140 81 94 83 45 49 27 6 15 22 35
230 224 224 220 229 224 193 180 215 220 215 225 233 215 178 147 162 171 94 17 283 286 279 210 196 209 188 158 166 171 170 220 219 199 176 167 146 140 171 149 140 184 194 164 157 216 249 238 128 107 114 145 144 164 180 171 192 274 228 211 217 207 210 227 356 23 10 331 304 143 260 288 300 240 209 182 193 192 70 112 136 141 67 104 115 78 45 56
234 220 218 228 233 209 183 189 223 211 203 232 234 206 183 174 158 166 109 36 278 261 210 193 181 185 173 149 160 146 76 254 251 131 162 175 164 126 144 141 84 194 172 137 154 222 247 225 122 127 130 139 154 213 222 166 140 277 248 207 208 196 181 177 142 111 161 253 301 86 191 259 321 310 229 174 194 213 238 187 198 214 193 178 180 177 140 106
232 219 217 229 225 199 185 198 201 183 189 241 223 187 184 177 164 176 86 8 273 193 133 214 175 157 166 171 160 137 171 239 103 85 149 172 180 86 136 175 129 195 169 127 194 240 175 127 100 130 126 138 172 227 218 160 138 231 248 161 168 173 178 176 160 172 223 249 323 28 148 226 296 287 264 160 197 244 241 231 232 214 206 203 199 194 172 161
232 224 218 220 219 204 197 187 175 178 199 229 192 179 180 172 171 158 79 301 272 112 112 247 71 104 132 112 94 116 213 241 112 218 342 99 168 57 144 198 167 172 172 148 209 262 150 164 177 158 138 173 199 216 187 160 154 239 188 118 133 152 161 148 143 178 271 1 288 289 134 205 264 268 309 62 244 254 224 210 216 205 205 202 197 198 181 175
232 228 221 217 218 211 205 207 185 191 212 201 170 175 169 165 170 84 79 227 260 87 88 117 116 48 75 108 56 66 53 25 111 237 4 86 106 60 157 200 143 139 125 144 207 250 131 202 191 154 155 198 201 225 181 167 183 197 129 99 83 78 85 93 116 128 64 88 242 237 182 200 267 278 291 77 255 251 213 200 208 195 200 202 197 194 179 178
228 225 222 215 212 206 203 217 217 198 201 183 167 164 156 155 144 96 201 228 158 109 83 97 152 97 127 136 345 357 78 32 89 66 36 95 33 34 118 148 96 118 37 9 252 237 318 301 195 147 170 183 140 70 130 143 145 142 113 79 62 45 48 56 66 89 71 269 248 233 198 193 256 273 235 202 231 215 164 177 196 185 202 207 200 191 179 181
224 222 219 213 209 202 198 215 214 197 183 173 160 150 147 112 60 165 218 239 63 148 127 129 202 142 152 154 172 180 105 45 161 123 119 142 65 50 104 129 81 78 9 332 298 298 346 345 257 193 147 127 104 67 45 66 96 110 94 94 90 5 14 29 359 49 153 249 256 263 219 186 225 253 238 228 241 200 166 176 182 183 199 202 194 187 181 185
221 221 218 214 212 205 201 211 203 194 179 167 155 140 141 95 206 215 223 41 132 203 152 163 193 169 173 154 109 154 129 104 175 137 140 148 152 171 183 179 154 88 292 231 230 330 282 227 238 189 160 139 117 86 47 32 54 87 96 113 114 345 3 352 295 237 223 245 263 291 198 197 231 247 252 241 228 217 206 191 179 181 190 193 186 181 181 188
220 219 215 214 214 208 205 207 198 192 177 162 153 108 115 176 223 219 210 190 212 199 121 116 124 139 155 138 131 166 123 139 179 151 139 129 155 208 245 207 165 132 185 194 174 184 270 279 202 151 234 189 154 146 138 161 173 154 148 140 137 128 137 247 258 259 255 249 293 299 222 219 263 265 261 244 223 225 236 254 198 184 185 184 179 175 182 190
219 217 213 213 215 212 207 201 196 193 176 157 151 112 148 215 229 200 196 211 219 48 73 102 98 104 146 167 210 180 134 194 177 139 125 126 148 209 236 232 199 118 100 141 171 177 203 271 198 172 204 185 176 178 155 143 153 177 161 136 147 159 171 218 217 212 248 257 306 299 214 189 205 247 273 264 279 289 272 280 276 190 178 166 161 169 184 194
217 214 213 211 212 213 207 198 195 192 176 154 156 170 187 223 228 179 189 198 159 71 48 71 99 113 176 238 267 200 175 208 172 134 153 167 178 199 198 206 200 161 136 162 208 169 180 264 243 220 271 169 174 183 119 115 131 202 128 115 171 189 151 163 196 176 181 285 281 236 224 222 197 222 297 303 303 304 312 337 148 179 164 149 166 185 192 199
208 208 210 206 206 209 205 200 193 187 176 154 175 193 210 222 207 168 188 165 153 144 111 73 94 120 196 237 249 224 215 131 156 155 193 199 219 207 191 206 196 188 180 168 187 167 145 280 285 15 12 157 169 176 121 127 168 151 139 174 213 182 117 115 239 70 80 258 256 191 223 285 316 274 302 17 322 285 309 341 175 182 168 167 190 198 196 200
197 200 203 202 203 204 204 202 191 183 176 170 193 202 220 223 190 167 181 143 141 141 134 188 191 152 186 197 202 208 196 122 160 172 194 199 230 197 191 234 197 194 203 179 187 193 148 259 290 87 137 285 309 122 75 25 129 126 179 207 182 125 93 107 227 352 48 244 268 209 209 228 165 240 296 28 275 247 224 208 180 178 181 191 202 201 200 199
192 194 200 205 201 197 200 202 191 181 179 197 205 211 217 217 192 165 164 129 133 148 166 207 203 173 183 188 193 188 180 182 173 177 187 197 242 190 177 210 197 195 205 180 162 228 145 185 292 36 154 286 357 108 85 4 59 128 187 183 113 145 168 107 180 220 211 243 285 288 230 221 193 204 204 202 224 221 197 187 190 191 195 200 202 201 201 195
191 191 216 206 197 192 195 197 191 181 199 202 207 216 210 209 210 170 164 146 143 170 191 207 197 181 184 174 164 171 182 184 167 174 189 186 233 198 175 193 200 198 201 177 167 212 136 172 259 318 185 179 24 149 172 204 34 63 110 118 84 153 174 160 165 171 184 222 280 295 275 239 224 203 183 196 209 198 176 186 203 203 202 201 198 197 198 195
186 195 241 190 188 188 187 189 191 194 213 206 211 220 201 190 207 194 188 176 167 187 194 198 186 175 177 175 164 165 182 187 172 183 208 187 205 218 195 194 178 184 192 177 179 158 120 180 213 308 334 162 186 219 194 182 168 135 148 165 174 129 124 186 222 121 140 177 215 283 288 257 246 209 184 198 207 187 179 190 203 206 205 205 201 198 196 193
178 213 211 171 178 179 175 179 204 206 210 215 218 227 218 171 161 194 207 196 213 225 161 173 185 177 164 173 188 171 168 186 186 189 219 204 200 222 210 188 159 148 139 162 203 192 153 173 168 154 190 192 227 266 210 184 177 167 178 184 185 175 136 178 246 195 113 185 182 220 273 258 235 207 189 201 210 192 192 195 199 204 203 204 205 200 196 194
182 211 167 164 172 169 163 187 211 197 220 219 215 225 196 156 167 185 198 199 229 254 124 145 176 172 169 169 176 168 160 177 193 193 216 215 206 222 242 184 153 152 148 159 199 186 137 126 134 161 209 216 254 299 103 180 155 146 196 190 174 177 155 178 227 211 136 229 133 118 270 272 253 224 207 224 233 208 204 202 204 211 206 204 206 202 201 201
192 191 135 162 169 165 162 216 198 200 231 221 222 231 176 180 199 181 183 196 195 157 162 201 182 185 198 165 144 166 174 181 192 192 200 216 207 222 311 160 152 156 159 154 163 163 132 125 136 170 307 329 316 309 53 43 83 161 225 173 159 194 184 188 212 151 160 205 134 121 256 262 270 248 226 244 254 237 224 214 209 211 205 201 201 200 201 197
170 151 74 170 172 168 171 204 194 206 221 214 224 223 210 222 194 185 192 195 189 159 167 193 198 190 191 154 150 174 185 192 199 199 192 181 193 157 58 146 166 169 181 193 168 175 186 163 141 139 126 338 320 256 235 308 210 211 211 166 185 187 148 132 119 98 215 202 154 188 244 233 237 292 298 288 267 244 241 225 211 207 197 196 199 200 195 184
134 98 348 192 181 177 185 197 191 202 209 211 219 214 214 234 207 196 197 189 185 179 176 192 186 163 149 157 155 170 187 191 187 191 191 190 200 55 59 86 168 193 249 302 235 178 185 183 163 170 194 204 207 208 207 196 181 210 182 174 199 189 168 167 146 173 230 185 154 207 241 232 238 273 264 257 168 229 238 214 208 212 200 200 202 197 190 186
156 146 212 224 220 214 225 166 181 199 205 208 216 210 210 220 228 203 197 196 199 191 183 165 150 145 156 174 168 175 195 202 155 160 189 195 197 23 61 86 86 170 286 308 269 170 164 205 196 201 211 206 198 195 158 134 145 196 201 186 198 199 186 175 156 203 205 142 190 226 221 238 250 220 219 236 213 226 236 202 206 221 211 207 202 192 193 195
174 156 171 175 198 217 218 149 184 199 202 202 203 198 206 213 214 192 202 207 199 186 180 99 163 179 187 179 177 184 183 179 160 167 181 181 136 42 40 95 109 175 299 315 309 120 137 217 211 210 222 203 150 137 137 141 167 193 197 199 205 195 179 184 207 210 146 132 239 228 134 221 256 224 198 225 220 223 230 212 215 221 209 199 187 184 193 195
205 146 174 173 122 197 210 204 192 196 200 198 195 191 204 210 207 202 203 202 188 185 185 205 200 199 190 175 175 182 169 170 192 189 171 148 133 112 57 71 134 299 6 14 331 81 145 230 222 191 216 189 115 118 138 137 162 187 194 208 207 185 176 194 217 211 157 192 244 226 139 224 254 228 200 215 209 208 216 210 204 193 177 177 177 188 196 195
142 68 317 323 49 194 205 183 178 195 200 192 192 202 206 209 209 204 170 135 190 201 200 208 208 202 193 179 172 176 177 182 198 197 173 150 161 155 131 157 240 354 57 121 255 106 156 234 197 171 223 226 155 156 153 150 183 221 223 224 211 188 183 199 219 217 198 228 255 184 182 234 244 193 203 214 193 187 191 163 151 160 173 180 186 198 203 202
136 139 163 95 63 193 178 129 163 195 205 191 196 205 203 207 208 197 146 171 194 203 211 215 207 193 188 186 184 194 199 191 186 186 171 162 181 183 173 185 165 93 121 164 194 212 207 216 148 148 217 231 160 141 151 176 196 226 245 240 217 181 199 216 224 214 204 244 249 200 221 245 236 183 202 215 116 140 168 176 175 185 187 182 191 205 208 206
99 324 281 138 142 160 156 138 163 188 205 201 200 194 197 210 204 174 133 247 194 173 200 211 200 176 173 192 198 203 199 156 127 151 159 159 178 183 172 173 148 139 161 169 149 187 212 213 106 137 198 211 139 142 152 133 115 251 256 246 204 180 214 219 209 189 197 222 225 218 236 246 217 179 187 180 153 167 201 203 193 207 197 183 196 208 208 208
86 352 5 101 141 162 152 84 143 184 201 192 181 168 184 201 181 152 160 335 25 94 110 115 127 120 142 194 201 178 105 101 98 100 115 115 112 100 95 121 129 134 156 163 136 150 173 163 139 166 185 175 78 141 137 94 64 259 257 235 192 198 205 157 174 206 206 203 200 218 233 222 166 170 184 197 198 205 222 213 200 211 204 195 206 208 208 211